Weather History for Plattsburgh, NY

Change the Weather History Date:

Sunday, April 21, 2013

  Actual Average Record
Temperature  
Mean Temperature 35 °F 46 °F  
Max Temperature 45 °F 57 °F 82 °F (1957)
Min Temperature 25 °F 35 °F 22 °F (1981)
Degree Days  
Heating Degree Days 30 19  
Month to date heating degree days 506 509  
Since 1 July heating degree days 6675 7192  
Cooling Degree Days 0 0  
Month to date cooling degree days 0 0  
Year to date cooling degree days 0 0  
Moisture  
Dew Point 17 °F    
Average Humidity 53    
Maximum Humidity 75    
Minimum Humidity 31    
Precipitation  
Precipitation T in - 1.22 in (1991)
Month to date precipitation 1.48  
Year to date precipitation 3.84  
Sea Level Pressure  
Sea Level Pressure 30.58 in    
Wind  
Wind Speed 6 mph (North)    
Max Wind Speed 17 mph    
Max Gust Speed 28 mph    
Visibility 10 miles    
Events      
T = Trace of Precipitation, MM = Missing Value Source: NWS Daily Summary

Daily Weather History Graph

Daily Weather History Graph

Search for Another Location

Airport:

Trip Planner

Search our weather history database for the weather conditions in past years. The results will help you decide how hot, cold, wet, or windy it might be!

Date:

Astronomy

Apr. 21, 2013 Rise Set
Actual Time 5:59 AM EDT 7:46 PM EDT
Civil Twilight 5:28 AM EDT 8:17 PM EDT
Nautical Twilight 4:50 AM EDT 8:55 PM EDT
Astronomical Twilight 4:09 AM EDT 9:37 PM EDT
Moon 3:19 PM EDT (4/21) 3:30 AM EDT (4/21)
Length of Visible Light 14h 49m
Length of Day
13h 47m
Waxing Gibbous, 79% of the Moon is Illuminated
Apr 21
Waxing Gibbous
Apr 25
Full
May 2
Last Quarter
May 9
New
May 18
First Quarter

Hourly Weather History & Observations

Time (EDT) Temp. Windchill Dew Point Humidity Pressure Visibility Wind Dir Wind Speed Gust Speed Precip Events Conditions
12:53 AM 34.0 °F 26.6 °F 21.0 °F 59% 30.32 in 9.0 mi NW 9.2 mph - 0.00 in   Overcast
1:53 AM 32.0 °F 25.6 °F 17.1 °F 54% 30.35 in 10.0 mi WNW 6.9 mph - 0.00 in   Mostly Cloudy
2:53 AM 30.9 °F 24.3 °F 17.1 °F 57% 30.38 in 10.0 mi WNW 6.9 mph - N/A   Scattered Clouds
3:53 AM 30.0 °F 22.4 °F 15.1 °F 54% 30.41 in 10.0 mi NW 8.1 mph - N/A   Clear
4:53 AM 28.0 °F - 14.0 °F 56% 30.45 in 10.0 mi Calm Calm - N/A   Clear
5:53 AM 28.0 °F - 14.0 °F 56% 30.49 in 10.0 mi Calm Calm - N/A   Clear
6:53 AM 30.0 °F - 15.1 °F 54% 30.53 in 10.0 mi Calm Calm - N/A   Clear
7:53 AM 32.0 °F 24.8 °F 15.1 °F 50% 30.57 in 10.0 mi WNW 8.1 mph - N/A   Scattered Clouds
8:53 AM 33.1 °F 23.9 °F 15.1 °F 48% 30.61 in 10.0 mi NNW 12.7 mph 16.1 mph N/A   Partly Cloudy
9:53 AM 35.1 °F 27.4 °F 15.1 °F 44% 30.63 in 10.0 mi North 10.4 mph 17.3 mph N/A   Clear
10:53 AM 37.9 °F 34.4 °F 14.0 °F 38% 30.64 in 10.0 mi Variable 4.6 mph - N/A   Clear
11:53 AM 39.9 °F 33.4 °F 16.0 °F 38% 30.64 in 10.0 mi North 10.4 mph - N/A   Clear
12:53 PM 41.0 °F 37.1 °F 14.0 °F 33% 30.64 in 10.0 mi NNE 5.8 mph - N/A   Clear
1:53 PM 42.1 °F 35.2 °F 17.1 °F 37% 30.63 in 10.0 mi ENE 12.7 mph - N/A   Clear
2:53 PM 43.0 °F 36.4 °F 15.1 °F 32% 30.63 in 10.0 mi ENE 12.7 mph - N/A   Clear
3:53 PM 44.1 °F 37.7 °F 15.1 °F 31% 30.63 in 10.0 mi ENE 12.7 mph 19.6 mph N/A   Clear
4:53 PM 43.0 °F 37.2 °F 15.1 °F 32% 30.63 in 10.0 mi ENE 10.4 mph - N/A   Clear
5:53 PM 43.0 °F 37.7 °F 15.1 °F 32% 30.63 in 10.0 mi ENE 9.2 mph - N/A   Clear
6:53 PM 41.0 °F 35.2 °F 18.0 °F 40% 30.64 in 10.0 mi NE 9.2 mph - N/A   Clear
7:53 PM 39.0 °F 34.8 °F 19.9 °F 46% 30.66 in 10.0 mi NE 5.8 mph - N/A   Clear
8:53 PM 33.1 °F - 21.9 °F 64% 30.69 in 10.0 mi Calm Calm - N/A   Clear
9:53 PM 30.0 °F - 21.9 °F 72% 30.70 in 10.0 mi Calm Calm - N/A   Clear
10:53 PM 28.9 °F - 21.0 °F 72% 30.70 in 10.0 mi Calm Calm - N/A   Clear
11:53 PM 28.0 °F - 21.0 °F 75% 30.70 in 10.0 mi Calm Calm - N/A   Clear